EW0347 Weather Reports


time (UTC)temp
F
wind
direction
speed
knots
gust
knots
rain 1hr
in
rain 24hr
in
rain mn
in
humidity
%
barometer
mb
20260504184542 68 297 4.3 15.6 0.00 0.00 0.00 32 1008.0
20260504183019 68 217 1.7 13.0 0.00 0.00 0.00 30 1008.2
20260504181545 67 222 5.2 20.0 0.00 0.00 0.00 31 1008.5
20260504180011 68 249 7.0 13.9 0.00 0.00 0.00 30 1008.6
20260504174545 67 207 6.1 20.0 0.00 0.00 0.00 29 1008.6
20260504173024 67 267 2.6 13.9 0.00 0.00 0.00 30 1008.7
20260504171548 66 59 4.3 21.7 0.00 0.00 0.00 30 1008.8
20260504140107 58 212 1.7 13.0 0.00 0.00 0.00 45 1010.5
20260504100103 41 232 0.0 1.7 0.00 0.00 0.00 72 1011.5
20260504090117 41 206 0.0 3.5 0.00 0.00 0.00 71 1011.5
20260504081537 40 204 0.0 4.3 0.00 0.00 0.00 72 1011.5
20260504044556 31 249 0.0 0.0 0.00 0.00 0.00 86 1011.5
20260504043028 31 249 0.0 0.9 0.00 0.00 0.00 86 1011.5
20260504041503 30 249 0.0 0.0 0.00 0.00 0.00 85 1011.4
20260504040040 30 249 0.0 0.9 0.00 0.00 0.00 83 1011.3
20260504034539 31 249 0.0 0.0 0.00 0.00 0.00 83 1011.1
20260504033029 31 249 0.0 4.3 0.00 0.00 0.00 82 1011.1
20260504031512 31 292 0.0 0.0 0.00 0.00 0.00 82 1011.0
20260504030052 32 292 0.0 1.7 0.00 0.00 0.00 78 1010.9
20260504024546 33 292 0.0 0.0 0.00 0.00 0.00 77 1010.9
20260504023032 33 292 0.0 0.0 0.00 0.00 0.00 76 1010.8
20260504021525 34 292 0.0 0.0 0.00 0.00 0.00 73 1010.8
20260504020055 35 292 0.0 0.0 0.00 0.00 0.00 71 1010.8
20260504014523 37 292 0.0 0.0 0.00 0.00 0.00 69 1010.7
20260504013011 38 292 0.0 0.0 0.00 0.00 0.00 68 1010.5
20260504011553 39 292 0.0 0.0 0.00 0.00 0.00 65 1010.4
20260504010023 41 292 0.0 0.9 0.00 0.00 0.00 63 1010.2
20260504004603 42 292 0.0 0.0 0.00 0.00 0.00 59 1009.9
20260504003033 43 292 0.0 2.6 0.00 0.00 0.00 54 1009.7
20260504001503 44 292 0.0 3.5 0.00 0.00 0.00 51 1009.6
20260504000039 45 300 1.7 7.0 0.00 0.00 0.00 47 1009.4
20260503234505 45 261 1.7 10.4 0.00 0.00 0.00 46 1009.4
20260503233036 46 327 2.6 9.6 0.00 0.00 0.00 45 1009.2
20260503231508 46 281 1.7 13.0 0.00 0.00 0.00 45 1009.1
20260503230046 47 292 5.2 16.5 0.00 0.00 0.00 43 1008.9
20260503224515 47 292 6.1 13.0 0.00 0.00 0.00 43 1008.8
20260503223040 46 325 4.3 10.4 0.00 0.00 0.00 47 1008.7
20260503221507 46 290 6.1 13.0 0.00 0.00 0.00 45 1008.7
20260503220053 46 311 5.2 14.8 0.00 0.00 0.00 45 1008.6
20260503214500 46 333 7.0 19.1 0.00 0.00 0.00 45 1008.6
20260503213037 46 290 6.1 21.7 0.00 0.00 0.00 43 1008.5
20260503211501 46 303 11.3 19.1 0.00 0.00 0.00 44 1008.4
20260503210039 47 316 9.6 23.5 0.00 0.00 0.00 43 1008.3
20260503204531 47 22 9.6 21.7 0.00 0.00 0.00 42 1008.1
20260503203001 47 294 10.4 20.9 0.00 0.00 0.00 43 1007.9
20260503201535 47 11 8.7 19.1 0.00 0.00 0.00 43 1007.8
20260503200007 47 297 7.0 18.2 0.00 0.00 0.00 44 1007.9
20260503194539 48 355 10.4 19.1 0.00 0.00 0.00 43 1007.7
20260503193003 47 281 6.1 20.9 0.00 0.00 0.00 46 1007.9
20260503191543 48 292 7.8 16.5 0.00 0.00 0.00 44 1007.6
20260503190023 47 304 5.2 17.4 0.00 0.00 0.00 46 1007.7